Wind_Speed
23 27 28 26 21 20 17 17 18 16 18 21 21 22 23 23 23 20 19 21 21 21 20 20 19 19 19 17 18 18 18 20 19 20 19 16 17 16 19 16 17 14 15
28 27 28 26 22 20 18 18 21 18 19 21 23 23 23 24 22 20 20 20 21 21 20 19 18 17 18 17 17 16 16 16 16 15 15 14 15 13 17 17 15 16 14
28 28 26 26 23 21 19 19 21 19 17 20 23 24 25 24 21 20 20 20 20 21 19 18 17 15 15 16 15 14 14 13 13 13 14 13 12 13 13 14 14 16 15
28 27 25 26 24 21 20 20 21 19 19 18 22 25 25 23 22 20 19 19 20 20 19 17 15 15 15 15 14 13 12 14 14 14 14 13 13 13 12 12 12 12 15
26 25 26 26 24 22 22 22 20 19 19 18 20 22 24 23 20 19 19 19 20 19 18 16 15 16 16 14 13 13 13 14 14 15 15 14 13 12 12 12 11 11 11
26 25 27 26 25 22 23 22 21 18 17 19 18 20 22 20 18 18 17 19 19 17 16 15 15 15 14 13 12 12 13 13 13 14 14 13 12 11 12 12 11 11 10
28 26 25 26 24 22 24 22 21 17 16 18 20 19 18 16 16 17 17 18 17 15 15 14 15 14 13 10 9 10 10 10 12 12 12 12 10 10 11 11 11 10 10
29 26 24 25 23 22 24 22 20 17 16 17 18 18 17 14 16 16 16 15 15 16 15 13 12 11 10 9 8 7 7 7 8 10 10 9 9 9 9 10 10 10 9
28 26 25 23 21 23 25 22 19 16 16 20 18 17 17 17 17 15 15 15 15 14 14 12 10 8 7 7 6 6 5 5 5 6 7 7 8 7 8 9 9 9 8
29 28 26 23 22 23 25 22 20 17 16 20 20 20 17 16 15 15 14 14 14 14 12 10 9 7 5 4 4 3 3 3 3 2 3 4 5 5 6 6 7 7 7
27 28 26 24 23 25 26 21 21 18 16 16 18 19 19 16 14 13 13 13 13 13 11 10 8 6 5 3 2 2 1 1 2 2 0 1 2 2 4 5 5 6 6
23 27 28 25 23 25 26 22 21 19 18 15 15 16 17 16 15 13 13 12 11 10 10 9 8 6 5 4 3 1 2 1 2 2 1 1 2 1 4 4 5 5 5
24 25 28 26 23 25 27 24 20 20 20 16 11 14 14 13 13 13 12 12 11 10 9 9 8 7 6 5 4 3 2 2 3 3 2 2 3 3 4 6 6 5 5
22 28 27 26 24 23 25 24 21 19 20 18 13 13 13 13 12 11 11 10 9 9 9 8 8 7 7 6 4 3 2 2 2 3 3 3 4 5 6 6 8 8 8
26 26 29 27 27 26 23 22 20 19 19 19 17 15 13 11 12 11 10 9 8 9 9 8 8 8 7 6 5 4 4 4 4 5 5 5 6 7 8 9 10 10 10
31 31 28 28 26 25 30 24 21 19 18 17 17 17 14 13 11 11 11 10 10 9 8 9 9 8 7 7 6 5 4 4 5 5 6 7 8 9 11 12 13 14 13
28 26 26 23 25 25 25 27 22 19 18 19 18 17 17 15 14 13 12 12 11 10 9 9 9 9 9 8 8 6 6 5 5 6 8 7 11 13 14 13 15 15 15
24 25 19 16 17 20 21 23 24 20 18 19 19 18 18 17 16 16 15 13 13 12 12 12 11 10 10 9 8 6 5 6 7 10 12 13 14 16 19 18 18 15 15
29 24 22 25 27 26 22 21 17 19 20 18 19 18 17 16 17 19 17 16 14 14 14 15 14 12 10 10 10 10 10 9 12 14 14 16 19 19 19 18 19 17 15
27 33 35 30 30 27 30 24 20 19 19 18 17 18 18 18 20 20 18 17 17 16 16 16 16 13 13 12 11 11 14 13 14 16 16 18 19 18 16 15 15 14 13
25 25 30 36 37 35 35 18 18 17 12 12 15 14 19 19 21 26 24 22 19 20 20 19 17 15 15 12 11 8 10 15 18 17 16 13 8 14 9 9 11 12 11
32 27 31 31 38 31 24 21 7 8 10 11 9 8 12 17 20 21 24 26 22 22 22 21 19 16 11 7 6 5 4 9 9 7 8 12 13 9 8 10 10 8 9
27 30 27 26 26 29 20 17 16 16 14 19 19 15 16 19 18 23 18 16 14 15 18 17 12 11 8 6 9 7 3 3 3 7 8 9 7 5 5 7 8 7 8
19 27 24 28 38 30 26 20 24 24 20 24 27 28 26 24 17 22 18 11 9 4 1 6 2 5 7 12 13 11 17 10 4 5 3 4 8 10 11 11 10 9 11
18 25 25 24 25 25 28 32 33 27 27 31 28 27 27 27 29 25 16 16 17 11 11 11 5 7 10 16 17 15 9 7 7 6 5 6 6 8 8 8 10 11 11
5 10 13 13 12 14 16 18 23 24 24 20 20 21 25 26 21 19 18 19 16 14 14 14 14 18 19 18 13 12 10 5 4 5 5 8 9 8 8 11 11 12 12
Wind_Direction
164 166 167 158 155 146 141 134 133 134 138 144 144 142 141 142 134 131 126 120 120 120 119 119 111 104 105 105 100 97 92 89 90 90 87 80 83 73 69 74 65 65 62
158 161 164 157 152 147 141 139 138 137 140 147 147 144 142 139 135 128 124 123 123 125 124 120 115 106 106 106 105 101 93 89 90 90 96 93 87 78 88 80 69 59 64
155 158 160 158 155 150 142 144 145 138 130 146 147 145 144 137 132 129 128 127 127 128 124 122 115 112 112 112 106 97 92 87 87 87 88 81 79 78 82 90 86 69 61
155 158 159 161 154 152 146 144 144 142 133 136 149 146 140 134 133 130 131 131 131 131 129 122 118 115 114 112 106 96 91 87 86 86 80 78 76 78 80 79 77 75 72
156 159 160 160 155 153 150 148 148 148 142 132 139 143 138 133 134 132 134 135 137 135 130 121 115 114 116 117 106 94 93 90 87 83 81 77 77 74 75 80 81 77 72
158 161 162 160 156 154 153 151 150 145 148 146 135 136 131 133 134 134 137 142 141 132 124 119 116 116 119 114 106 96 93 89 86 82 81 79 76 78 76 77 78 79 75
161 161 162 160 155 153 155 150 150 145 147 150 147 139 135 143 138 137 138 141 139 132 131 123 119 117 118 117 110 100 92 88 84 81 81 80 79 79 78 76 76 77 77
162 159 159 161 155 155 158 151 154 146 143 143 147 148 147 145 145 140 136 136 138 141 140 135 129 125 122 117 117 115 102 92 82 78 78 80 78 76 74 70 70 70 68
161 157 159 158 155 157 160 155 155 146 144 142 146 149 152 153 144 140 139 138 142 145 148 147 141 136 133 126 117 116 109 100 88 78 73 76 77 68 63 63 64 61 58
160 158 158 157 154 155 154 158 153 147 142 149 152 152 153 149 150 146 142 145 148 150 151 150 148 144 143 144 140 123 102 82 62 67 72 70 76 58 51 51 52 49 47
160 159 160 156 154 157 156 151 158 156 143 143 154 162 160 155 154 154 154 156 158 156 158 159 162 163 167 169 180 184 174 23 17 22 66 48 48 32 23 28 28 29 27
156 165 161 157 156 159 162 155 160 161 158 149 152 161 166 169 168 165 163 165 166 169 172 175 179 185 184 177 185 216 217 303 343 353 326 288 319 325 318 354 356 358 357
169 161 164 158 159 163 166 165 158 161 164 157 159 162 163 166 171 175 176 178 183 186 190 193 197 196 197 194 198 207 240 289 316 320 349 314 300 297 275 300 325 333 329
174 174 165 161 159 163 167 172 170 166 168 177 179 175 170 174 181 185 189 193 199 206 212 216 216 213 208 201 206 210 214 251 282 305 314 308 303 292 284 276 284 302 307
190 179 171 168 163 158 162 169 179 182 182 184 186 191 186 186 191 197 197 205 220 228 227 234 231 222 212 217 229 241 253 262 275 283 286 284 291 295 292 286 279 277 279
203 177 174 175 169 169 157 164 175 186 195 199 198 200 200 203 201 205 213 225 233 234 235 233 233 230 233 234 235 236 251 260 270 274 281 288 292 292 291 283 281 267 269
188 175 169 169 181 177 175 162 166 181 191 198 201 208 214 217 219 222 233 241 244 238 236 233 233 241 248 246 244 247 255 265 275 281 289 297 301 301 308 296 289 285 266
191 177 162 174 211 196 190 187 165 171 184 202 203 208 215 221 225 231 238 246 245 243 244 240 238 246 250 249 254 255 273 279 290 291 293 288 285 290 293 291 287 278 266
176 181 191 199 205 207 203 198 187 174 190 202 211 211 218 226 231 234 234 242 245 246 247 245 242 242 246 243 249 254 270 276 275 274 277 285 285 289 289 282 281 276 267
167 198 207 205 212 204 215 204 193 197 205 209 224 231 229 229 236 236 237 238 239 245 246 239 234 231 237 247 264 277 276 279 280 275 274 281 288 294 293 283 274 265 257
190 195 200 205 211 212 213 212 205 180 199 226 237 247 255 245 252 247 237 238 240 238 239 237 234 234 240 250 261 282 295 299 285 275 279 289 294 311 310 313 288 265 251
193 188 202 206 215 221 206 215 236 267 256 254 250 266 275 272 266 265 260 252 239 240 234 232 228 228 233 240 269 285 314 313 295 291 275 295 297 296 302 309 303 281 254
191 197 210 208 219 223 207 211 227 235 246 263 273 280 279 284 269 280 248 248 254 254 245 244 240 246 259 280 309 302 321 267 308 304 287 280 279 287 305 317 307 286 253
201 215 202 201 227 230 233 232 229 231 230 247 257 256 266 260 265 260 254 255 242 149 44 184 250 328 330 311 307 301 285 277 292 303 321 297 281 294 295 288 280 267 250
194 218 237 230 228 226 235 225 232 237 235 248 249 250 262 256 251 234 250 218 202 201 206 260 279 274 278 276 273 262 239 254 253 240 283 296 321 289 295 297 277 275 259
156 211 215 218 219 220 228 228 233 237 246 246 244 236 236 231 232 234 223 206 202 209 200 190 212 243 242 243 237 230 227 205 187 204 235 274 293 299 315 297 285 271 260
Height
786 792 796 800 803 805 806 808 811 813 814 817 820 822 824 826 828 831 832 833 835 838 840 842 842 843 844 844 845 846 846 846 846 846 846 847 847 847 846 846 845 844 843
784 791 796 799 803 804 806 809 810 813 815 817 820 822 825 828 830 832 834 835 837 840 842 843 845 845 846 846 847 848 848 848 848 848 848 848 849 848 848 848 848 847 845
786 791 797 799 802 805 806 809 811 813 815 818 820 823 826 828 831 833 835 838 839 841 843 845 846 847 848 849 849 850 850 851 850 850 850 850 851 850 849 849 849 849 848
787 792 796 799 801 804 807 810 812 813 815 818 820 823 826 829 833 835 837 839 841 843 844 846 848 848 849 851 851 852 852 852 852 852 851 852 853 852 851 851 851 851 850
788 792 795 799 801 803 806 810 812 814 816 819 822 825 827 831 834 837 839 841 843 845 846 848 849 850 852 853 853 853 853 853 854 854 854 854 854 854 853 851 851 852 851
788 793 795 798 801 803 805 810 813 815 817 819 823 826 829 832 835 838 840 842 844 846 848 849 851 852 854 854 854 855 855 855 855 855 855 855 856 855 854 853 852 852 852
788 792 796 798 800 804 806 809 813 816 817 820 823 827 830 833 836 838 841 843 845 847 849 851 852 853 855 856 856 856 857 857 857 856 856 857 857 856 855 854 854 853 852
786 790 796 798 799 803 807 809 813 816 818 821 824 828 831 834 836 839 841 843 846 848 849 851 852 854 855 856 856 857 857 858 858 858 858 858 858 857 856 855 855 854 853
785 788 794 797 799 802 806 810 813 816 819 822 825 829 832 835 837 839 842 844 846 848 850 852 853 855 856 857 858 858 858 858 858 858 858 858 858 858 857 856 856 855 854
784 787 791 796 798 801 806 811 814 816 819 823 826 828 832 835 838 839 842 845 847 849 851 853 854 855 856 857 858 859 859 859 859 859 859 858 858 858 858 857 857 856 855
788 788 791 794 797 801 805 810 814 817 820 822 826 829 832 835 838 840 842 845 847 849 851 853 854 855 856 857 858 858 859 859 859 859 859 859 859 859 858 857 857 856 855
783 789 789 792 796 801 804 809 813 817 820 823 826 830 832 835 838 840 842 845 847 849 850 852 853 854 856 856 857 857 858 858 858 858 858 858 858 858 858 857 857 856 855
785 786 787 790 796 800 803 808 812 816 819 823 827 830 832 835 838 840 842 844 847 848 850 851 852 853 854 855 855 856 856 857 858 857 857 857 857 857 857 857 856 855 854
784 783 786 789 794 799 803 808 812 816 819 823 827 830 832 835 838 841 842 844 846 847 849 850 851 852 852 853 855 855 855 855 856 856 856 856 856 856 856 856 855 855 854
780 781 785 788 792 795 801 807 813 816 819 822 826 829 831 834 837 840 842 844 846 847 848 850 851 851 852 852 853 854 854 854 854 854 854 854 854 854 853 853 852 852 851
781 779 781 788 792 796 794 803 810 814 818 821 824 827 829 832 835 838 840 842 843 845 846 848 850 851 851 851 852 852 852 852 852 852 853 852 852 851 850 849 849 848 848
778 778 779 784 792 796 799 797 803 810 814 818 821 825 828 831 834 836 839 841 843 843 845 846 848 850 850 850 850 850 850 851 851 851 850 850 849 848 847 847 845 845 845
775 777 779 781 788 794 799 804 799 803 809 815 817 821 825 829 831 834 836 838 841 842 844 845 846 847 848 848 850 850 849 849 849 850 849 849 847 846 845 844 842 841 841
773 776 779 790 795 798 800 803 802 799 805 811 816 820 823 825 828 831 831 834 838 840 841 843 844 845 846 846 846 846 847 845 845 845 845 845 844 842 840 839 839 837 837
769 775 781 786 791 796 799 799 798 800 804 808 814 819 821 821 825 827 828 831 834 836 839 841 841 841 842 843 844 844 845 843 842 841 840 840 839 838 836 834 834 833 833
770 772 775 786 785 789 792 790 796 800 802 804 812 818 820 820 823 825 824 827 828 831 835 838 839 839 839 840 842 841 840 840 840 839 838 837 836 835 834 833 832 830 830
767 769 781 782 782 786 783 783 786 793 798 808 812 812 815 816 819 822 823 824 824 828 831 835 835 835 836 838 840 840 836 838 836 836 836 835 835 834 832 832 831 831 829
766 772 775 777 783 785 783 786 790 795 799 802 803 804 807 812 814 817 819 820 823 827 829 833 834 834 835 837 839 841 838 837 837 835 834 834 832 831 830 830 829 830 830
765 767 773 775 777 780 783 789 792 793 794 794 798 802 806 809 808 809 812 815 819 820 822 825 828 831 832 834 835 836 839 838 836 833 832 832 832 831 830 829 828 826 828
765 766 769 772 774 778 782 786 788 789 790 794 795 798 802 804 805 808 808 807 813 813 815 822 827 830 828 832 831 832 835 834 834 836 832 832 831 829 829 827 828 827 827
764 765 767 770 775 776 776 779 783 785 787 789 791 793 795 796 798 800 803 806 809 811 810 810 817 824 826 828 829 830 830 830 830 832 833 832 831 828 827 826 825 824 824